Index of /pub/experiments/bfys/lhcb/outerTracker/PictureDatabase

[ICO]NameLast modifiedSizeDescription

[DIR]Parent Directory  -  
[DIR]Panel and Side Walls/20-Jan-2004 16:31 -  
[IMG]rich2.jpg24-Sep-2004 16:53 302K 
[IMG]kapton.jpg23-Nov-2004 12:03 1.5M 
[DIR]Cframe-Transport-NIKHEF-30052006/31-May-2006 16:11 -  
[DIR]VisitCompass-30052006/02-Jun-2006 11:18 -  
[DIR]Module-1st-half-NIKHEF-12062006/12-Jun-2006 17:49 -  
[DIR]VAT-Module-1st-half/12-Jun-2006 17:50 -  
[DIR]HV-Test-09062006/12-Jun-2006 17:51 -  
[DIR]Module-1st-half-CERN-14062006/18-Jun-2006 18:56 -  
[DIR]Knopf@NIKHEF-06072006/06-Jul-2006 11:07 -  
[DIR]CableTrays-June-2006/06-Jul-2006 17:52 -  
[DIR]TELL1-Patch-19072006/27-Jul-2006 22:29 -  
[DIR]Russians-28052006/07-Sep-2006 11:03 -  
[DIR]Trolleys-01082006/24-Sep-2006 00:19 -  
[DIR]Cabling-12102006/11-Oct-2006 15:50 -  
[DIR]Module-FTB-Resoldering-Oct-2006/16-Oct-2006 10:41 -  
[DIR]FE-Electronics-Test-26102006/26-Oct-2006 18:10 -  
[DIR]IT-Insertion-26102006/26-Oct-2006 18:16 -  
[DIR]55Fe-Test-05102006/26-Oct-2006 18:16 -  
[DIR]Teus-at-LHCb-25102006/26-Oct-2006 18:17 -  
[DIR]For-Bachmann-23072007/23-Jul-2007 11:30 -  
[DIR]FE-Wiring-01072008/01-Jul-2008 18:34 -  
[   ]MakeAllThumb.py26-Sep-2008 11:10 375  
[DIR]AfterCameraRetrieval/26-Sep-2008 14:31 -  
[DIR]MST-FoamConnection-21062005/26-Sep-2008 14:31 -  
[DIR]Damage_Mod15/26-Sep-2008 14:31 -  
[DIR]PanelWithStraws/26-Sep-2008 14:31 -  
[DIR]Damage_Mod94/26-Sep-2008 14:31 -  
[DIR]EnvironmentalMonitoring/26-Sep-2008 14:31 -  
[DIR]ForChia/26-Sep-2008 14:31 -  
[DIR]FP014/26-Sep-2008 14:31 -  
[DIR]Frame_and_Other_from_Ruud/26-Sep-2008 14:32 -  
[DIR]HeidelbergPRR/26-Sep-2008 14:32 -  
[DIR]Module-001/26-Sep-2008 14:32 -  
[DIR]Module-002/26-Sep-2008 14:32 -  
[DIR]Module0-5012/26-Sep-2008 14:32 -  
[DIR]ModuleGluingNewLoek/26-Sep-2008 14:32 -  
[DIR]ModuleSurvey-10112004/26-Sep-2008 14:32 -  
[DIR]Nicomatic/26-Sep-2008 14:32 -  
[DIR]OTIS-Bonding-16112004/26-Sep-2008 14:32 -  
[DIR]Overviews/26-Sep-2008 14:32 -  
[DIR]PRR/26-Sep-2008 14:32 -  
[DIR]PanelGlueing/26-Sep-2008 14:32 -  
[DIR]PanelScans/26-Sep-2008 14:32 -  
[DIR]ProblemswithPanelHandling/26-Sep-2008 14:32 -  
[DIR]SideStrips/26-Sep-2008 14:32 -  
[DIR]SilicaProofs/26-Sep-2008 14:32 -  
[DIR]SourceScanningTool/26-Sep-2008 14:32 -  
[DIR]StrawPreparationTool/26-Sep-2008 14:32 -  
[DIR]Template/26-Sep-2008 14:32 -  
[DIR]Visit-at-Philips-HTP-Lommel-17052004/26-Sep-2008 14:32 -  
[DIR]WirePositionTool/26-Sep-2008 14:32 -  
[DIR]MST/26-Sep-2008 14:32 -  
[DIR]Electronics/26-Sep-2008 14:32 -  
[DIR]OTIS1.1-Patch/26-Sep-2008 14:33 -  
[DIR]HV-Cable-From-CERN-scrapeyard/26-Sep-2008 14:33 -  
[DIR]C-Frame2/26-Sep-2008 14:33 -  
[DIR]OTIS1.2-Patch-17122004/26-Sep-2008 14:33 -  
[DIR]MassProduction/26-Sep-2008 14:33 -  
[DIR]TransportDamage/26-Sep-2008 14:33 -  
[DIR]ModuleBoxes/26-Sep-2008 14:33 -  
[DIR]MiniStraws/26-Sep-2008 14:33 -  
[DIR]WireProblemsLastLot/26-Sep-2008 14:33 -  
[DIR]Party-11-March-2005/26-Sep-2008 14:33 -  
[DIR]MST-Survey-09042005/26-Sep-2008 14:33 -  
[DIR]MST-Module-Damages/26-Sep-2008 14:33 -  
[DIR]PanelHandlingTool/26-Sep-2008 14:33 -  
[DIR]HVtester/26-Sep-2008 14:33 -  
[DIR]Art/26-Sep-2008 14:34 -  
[DIR]PanelHandling/26-Sep-2008 14:34 -  
[DIR]Wiring/26-Sep-2008 14:34 -  
[DIR]Crew/26-Sep-2008 14:34 -  
[DIR]ModuleGlueing/26-Sep-2008 14:34 -  
[DIR]ConnectorSoldering/26-Sep-2008 14:34 -  
[DIR]MST-Electronics-Tests-14042005/26-Sep-2008 14:34 -  
[DIR]MST-22042005/26-Sep-2008 14:34 -  
[DIR]ModuleGlueing_April05/26-Sep-2008 14:34 -  
[DIR]GlueOnWarsawConnector/26-Sep-2008 14:34 -  
[DIR]NewHVtrainingSetup/26-Sep-2008 14:34 -  
[DIR]WireTensionScreen/26-Sep-2008 14:34 -  
[DIR]MST-Ruler/26-Sep-2008 14:34 -  
[DIR]SolderStripGlueing/26-Sep-2008 14:34 -  
[DIR]S-Module-Coupling-13062005/26-Sep-2008 14:34 -  
[DIR]S3Modules/26-Sep-2008 14:34 -  
[DIR]NewDowelPin/26-Sep-2008 14:34 -  
[DIR]ProductionProcess_Jan2004/26-Sep-2008 14:34 -  
[DIR]S3-Module-Coupling-050705/26-Sep-2008 14:35 -  
[DIR]ModuleLeak/26-Sep-2008 14:35 -  
[DIR]Burglary/26-Sep-2008 14:35 -  
[DIR]Party_Module100/26-Sep-2008 14:35 -  
[DIR]Group-Photo-31082005/26-Sep-2008 14:35 -  
[DIR]Mourad-Party/26-Sep-2008 14:35 -  
[DIR]Special-Edge-Gluing-September-2005/26-Sep-2008 14:35 -  
[DIR]Tranposrt-Teastbeam-Moduels-02092005/26-Sep-2008 14:35 -  
[DIR]S2-Coupling-September-2005/26-Sep-2008 14:35 -  
[DIR]MST-Survey-01102005/26-Sep-2008 14:35 -  
[DIR]ModuleFinishing/26-Sep-2008 14:35 -  
[DIR]TransportBox/26-Sep-2008 14:35 -  
[DIR]TestModule_Gras/26-Sep-2008 14:35 -  
[DIR]Cframe-Hengelo-07102005/26-Sep-2008 14:35 -  
[DIR]MST-Survey-01102005-Preparations/26-Sep-2008 14:35 -  
[DIR]LastModuleCeremony/26-Sep-2008 14:36 -  
[DIR]Cframe-Survey-04112005/26-Sep-2008 14:36 -  
[DIR]Visitors/26-Sep-2008 14:36 -  
[DIR]Voetbal/26-Sep-2008 14:36 -  
[DIR]Cframe-1-Assembly-13012006/26-Sep-2008 14:36 -  
[DIR]Cframe-1-2-Assembly-190102006/26-Sep-2008 14:36 -  
[DIR]S-Module-Coupling-31012006/26-Sep-2008 14:36 -  
[DIR]S3-Irradiation-Test/26-Sep-2008 14:36 -  
[DIR]SrScanH040-DirtyPipe-130206/26-Sep-2008 14:36 -  
[DIR]Cframe-Assembly-160206/26-Sep-2008 14:36 -  
[DIR]10cm-Module/26-Sep-2008 14:36 -  
[DIR]S-Module-Coupling-GasPipes-240206/26-Sep-2008 14:36 -  
[DIR]WireInspection-VU-28032006/26-Sep-2008 14:37 -  
[DIR]HD-AgeingTest-Module-at-NIKHEF-29032006/26-Sep-2008 14:37 -  
[DIR]Bridge-Load-Test-27032006/26-Sep-2008 14:37 -  
[DIR]WireInspection-03042006-Optical/26-Sep-2008 14:37 -  
[DIR]CoolingPhotos/26-Sep-2008 14:37 -  
[DIR]S3-Module-Repair-040406/26-Sep-2008 14:37 -  
[DIR]Cframe-Handling-at-NIKHEF-12052006/26-Sep-2008 14:37 -  
[DIR]Glue/26-Sep-2008 14:37 -  
[DIR]Cooling-Details-Cframe-02052006/26-Sep-2008 14:37 -  
[DIR]Gas-Pipes-on-Cframes-10052006/26-Sep-2008 14:37 -  
[DIR]Rollers-Strength-Test-02052006/26-Sep-2008 14:37 -  
[DIR]WireInspection-Philips-190506/26-Sep-2008 14:37 -  
[DIR]WireInspection-VU-0603006/26-Sep-2008 14:37 -  
[DIR]WireInspection-UvA-030306/26-Sep-2008 14:37 -  
[DIR]Drawings-Frame-Jan-2005/26-Sep-2008 14:40 -  
[DIR]T2-Q02-VX-17082006/26-Sep-2008 14:40 -  
[DIR]S-extension-bars-17082006/26-Sep-2008 14:40 -  
[DIR]T2-Q02-XU-17082006/26-Sep-2008 14:40 -  
[DIR]Cframe-Assembly-at-NIKHEF-04052006/26-Sep-2008 14:41 -  
[DIR]Cframe-Transport-CERN-06092006/26-Sep-2008 14:41 -  
[DIR]Heating-Mod30/26-Sep-2008 14:41 -  
[DIR]Box-Destroyed-Nov-2006/26-Sep-2008 14:41 -  
[DIR]Openable-Chamber/26-Sep-2008 14:41 -  
[DIR]MISC-Jan-2007/26-Sep-2008 14:42 -  
[DIR]T3-Q13-XU-31012007/26-Sep-2008 14:42 -  
[DIR]HV-Patch-Panel-13022007/26-Sep-2008 14:42 -  
[DIR]HeatingSetup-080307/26-Sep-2008 14:42 -  
[DIR]Gas-Pipes-26032007/26-Sep-2008 14:42 -  
[DIR]Last-CFrame-05042007/26-Sep-2008 14:42 -  
[DIR]Chair-Bridge-11042007/26-Sep-2008 14:42 -  
[DIR]OT-Complete-16042007/26-Sep-2008 14:42 -  
[DIR]Collimator/26-Sep-2008 14:42 -  
[DIR]Access-Study-27042007/26-Sep-2008 14:42 -  
[DIR]WireInspection-NIKHEF-17072007/26-Sep-2008 14:42 -  
[DIR]Art-100707/26-Sep-2008 14:42 -  
[DIR]Wire-OpticalInspection-19072007/26-Sep-2008 14:43 -  
[DIR]VELO-Descent-18102007/26-Sep-2008 14:43 -  
[DIR]Gas-Analysis-14082007/26-Sep-2008 14:43 -  
[DIR]Cosmic-RICH2-18102007/26-Sep-2008 14:43 -  
[DIR]Platform-C-18102007/26-Sep-2008 14:43 -  
[DIR]Scanning-Frame-16102007/26-Sep-2008 14:43 -  
[DIR]Survey-07082007/26-Sep-2008 14:43 -  
[DIR]Beam-Pipe-16072007/26-Sep-2008 14:43 -  
[DIR]Access-Platform-13112007/26-Sep-2008 14:43 -  
[DIR]Scanning-Frame-18072008/26-Sep-2008 14:43 -  
[DIR]Platforms-C-06112007/26-Sep-2008 14:43 -  
[DIR]Cosmics-16112007/26-Sep-2008 14:43 -  
[DIR]Trabond-Module-150108/26-Sep-2008 14:43 -  
[DIR]Access-Platform-20112007/26-Sep-2008 14:43 -  
[DIR]Sidewall-Removal-Mod1/26-Sep-2008 14:43 -  
[DIR]OT-GlobalView-18072008/26-Sep-2008 14:43 -  
[DIR]Survey-Reproducibility-14022008/26-Sep-2008 14:43 -  
[DIR]DNL-plots-01042008/26-Sep-2008 14:43 -  
[DIR]ASDBLR-VisInsp-070408/26-Sep-2008 14:43 -  
[DIR]OBR-QPI-VisInsp-010408/26-Sep-2008 14:43 -  
[DIR]OT-GlobalView-25042008/26-Sep-2008 14:43 -  
[DIR]Ageing-Open-Mod1-110408/26-Sep-2008 14:43 -  
[DIR]ABB-OBR-VisInsp-100408/26-Sep-2008 14:43 -  
[DIR]Cframe-Movement-Mechanism-15042008/26-Sep-2008 14:43 -  
[DIR]FE-GOLConnector-290508/26-Sep-2008 14:43 -  
[DIR]Scanning-Frame-For-Magnet-Test-03062008/26-Sep-2008 14:44 -  
[DIR]OTIS-Bonding-120608/26-Sep-2008 14:44 -  
[DIR]Ageing-Open-Mod1-170608/26-Sep-2008 14:44 -  
[DIR]OT_IT_Closed_18062008/26-Sep-2008 14:44 -  
[DIR]OT_People_19062008/26-Sep-2008 14:44 -  
[DIR]RASNIK_19062008/26-Sep-2008 14:44 -  
[DIR]IT_Closed_18062008/26-Sep-2008 14:44 -  
[DIR]Scanning-Frame-Holders-12022008/26-Sep-2008 14:44 -  
[DIR]Scanning-Frame-06112007/26-Sep-2008 14:44 -  
[DIR]Scanning-Frame-Holders-07022008/26-Sep-2008 14:44 -  
[DIR]Scanning-Frame-Nikhef-08092007/26-Sep-2008 14:44 -  
[DIR]Scanning-Frame-Modifications-03042008/26-Sep-2008 14:44 -  
[DIR]Scanning-Frame-Dimensions-25072008/26-Sep-2008 14:45 -  
[DIR]S3-Module-Coupling-011008/01-Oct-2008 21:25 -  
[DIR]HV-Tester-ScreenShots-Apr2008/23-Oct-2008 10:00 -  
[DIR]OTIS-03122008/03-Dec-2008 13:36 -  
[DIR]Outgassing-050209/06-Feb-2009 08:03 -  
[   ]Thumbs.db19-Feb-2009 12:20 20K 
[DIR]SourceHolder-100709/10-Jul-2009 14:42 -  
[DIR]Glue-AY103-15072009/15-Jul-2009 10:42 -  
[DIR]Damage-T1L0Q0M1-15072009/16-Jul-2009 14:44 -  
[DIR]Glue-AY105-22092009/14-Oct-2009 15:03 -  
[DIR]WireInspection-HV-VU-180209/05-Feb-2010 13:39 -  
[DIR]H040-LargeIrradiation-100210/10-Feb-2010 11:22 -  
[DIR]OT-Protection-Installation-10022010/10-Feb-2010 17:33 -  
[DIR]S2-coupling/24-Jun-2010 14:09 -  
[DIR]GlueFree-Gas-Modules-2011/22-Nov-2011 21:23 -  
[DIR]90SrScan-Jan-2012/28-Jan-2012 12:57 -  
[DIR]Module-Damage-T2L3Q2M9/28-Jan-2012 12:57 -  
[DIR]FE-Cabinet-CERN-Jan-2012/28-Jan-2012 12:57 -  
[DIR]GasRoomUAX1-23022012/23-Feb-2012 19:58 -  
[DIR]Irradiation-Pillar-Setup-12082008/08-May-2012 22:43 -  
[DIR]Henk-links/13-Nov-2012 11:38 -  
[DIR]Link-Tests-Dec-2012/16-Dec-2012 12:07 -  
[DIR]Warsaw-Tools-Dec-2012/16-Dec-2012 12:08 -  
[DIR]Warsaw-Visit-Nov-2012/16-Dec-2012 12:13 -  
[   ]MakeThumbNails.py25-Mar-2013 09:02 1.7K 
[DIR]Wiener-CAEN-fans-Mar-2013/25-Mar-2013 09:13 -  
[DIR]Opening-OT-IT-Mar2013/25-Mar-2013 09:13 -  
[DIR]Henk/07-Apr-2013 20:13 -  
[DIR]TestBeamDesy_March2005/08-Apr-2013 14:30 -  
[DIR]Tom/08-Apr-2013 17:37 -  
[DIR]Modules@CERN-18072013/18-Jul-2013 12:49 -  
[DIR]Photos-Module-Transport-16072013/09-Sep-2013 09:47 -  
[DIR]Containers-Filling-05-Sep-2013/09-Sep-2013 11:47 -  
[DIR]Containers-Transport-23-Sep-2013/23-Sep-2013 12:02 -  
[DIR]Containers-at-CERN-24092013/25-Sep-2013 13:08 -  
[DIR]HV-Problem-26062012/21-Nov-2013 14:01 -  
[DIR]LS1-2013/28-Nov-2013 09:44 -  
[DIR]FEB-Tristan-15012008/12-Sep-2014 15:02 -  
[DIR]Scanning-Table-31032014/21-Oct-2014 11:14 -  
[DIR]CleanRoom-27062013/21-Oct-2014 11:16 -  
[DIR]SourceHolder-Cleanroom-19112010/22-Oct-2014 21:24 -  
[DIR]VV50-multiplexer-55Fe-Oct2004/22-Oct-2014 21:32 -  
[DIR]NiceCollection-11122009/06-Nov-2014 15:48 -  
[IMG]th_25-May-2015 17:31 81K 
[DIR]GOL-07072010/25-May-2015 18:10 -  
[DIR]Bridge-Connection-June-2006/25-May-2015 18:11 -  
[DIR]Bridge-Installation-Jun-2006/25-May-2015 18:14 -  
[DIR]Bridge-Survey-Jun-2006/25-May-2015 18:15 -  
[DIR]C-Frame/25-May-2015 18:19 -  
[DIR]C-Cage-June-2006/25-May-2015 18:21 -  
[DIR]C-CAGE-19072006/25-May-2015 18:23 -  
[DIR]Cframe-Repair-HV-26102006/25-May-2015 18:26 -  
[DIR]Cframe-Transport-CERN-02062006/25-May-2015 18:31 -  
[DIR]Cframe-on-Bridge-19072006/25-May-2015 18:35 -  
[DIR]Closing-OT-21022012/25-May-2015 18:37 -  
[DIR]Installation-02062006/25-May-2015 18:39 -  
[DIR]Installation-Miscellanea-PhotosHenk/25-May-2015 18:41 -  
[DIR]ItaliaCampione2006/25-May-2015 18:42 -  
[DIR]Opening-OT-29102008/25-May-2015 18:46 -  
[DIR]Photos-VanHalterenMetaal/25-May-2015 18:48 -  
[DIR]Platform-CTRLBox-26012009/25-May-2015 18:51 -  
[DIR]Survey-23022012/25-May-2015 18:54 -  
[DIR]Survey-30012008/25-May-2015 18:55 -  
[DIR]Survey-March-2009/25-May-2015 18:56 -  
[DIR]Survey-Pillars-May-2005/25-May-2015 19:06 -  
[DIR]T1-Q02-XU-25102006/25-May-2015 19:07 -  
[DIR]T1-Q13-XU-Dowelpins-08022007/25-May-2015 19:10 -  
[DIR]T3L1Q0M3-Jan2012/25-May-2015 19:12 -  
[DIR]Van-Halteren-Transport-31032006/25-May-2015 19:12 -  
[DIR]VisitMarcelMerk-31052006/25-May-2015 19:14 -  
[DIR]Work-on-Height-24052006/25-May-2015 19:16 -  
[DIR]foto's van Halteren/25-May-2015 19:17 -  
[DIR]Images-For-Amstel-Engineering-7Jul2015/07-Jul-2015 12:28 -  

Apache/2.2.15 (Scientific Linux) Server at www.nikhef.nl Port 443